STARLINK-32135 (60277 NORAD) Tracking and Keplerian Element Data

This shows tracking and keplerian element data for the satellite.

Feedback or suggestion? Click here.




ElementValue
Catalog60277
NameSTARLINK-32135
Epoch Orbit1316
Epoch Day286.7067692
Epoch Year2024
RAAN276.2486
Inclination53.1597
Eccentricity0.0001123
Argument of Perigee73.8755
Mean Anonmoly286.2374
Mean Motion15.39627559
Decay Rate0.00034419
L11 60277U 24131Y 24286.70676920 .00034419 00000+0 86637-3 0 9995
L22 60277 53.1597 276.2486 0001123 73.8755 286.2374 15.39627559 13166



Live tracking and technical data element details for STARLINK-32135 (NORAD 60277). STARLINK-32135 can be tracked NOW for your location showing map with azimuth and elevation plus other details from your city location.







IsCatalogInMostPopularTable: catalog: 60277, numindb: 13
Update: records affected: 1



GetName: 60277 STARLINK-32135

Hit Count: updated at: Thu, 23 Jan 2025 14:19:30 GMT